Location: Kuffner-Sternwarte
(48.2130°N, 16.2960°E)
Time: 14:54:06
(UTC+02:00)

Envisat - Visible Passes

Search period start: 20 September 2024 00:00
Search period end: 30 September 2024 00:00
Orbit: 762 x 764 km, 98.3° (Epoch: 19 September)

Date Brightness Start Highest point End Pass type
(mag) Time Alt. Az. Time Alt. Az. Time Alt. Az.
20 Sep 5.0 03:00:52 10° NE 03:04:37 20° E 03:05:48 19° ESE visible
20 Sep 3.0 04:38:59 10° N 04:43:58 60° WNW 04:45:57 35° SW visible
21 Sep 3.2 04:01:28 10° NNE 04:06:32 68° ESE 04:07:57 46° SSE visible
21 Sep 4.4 05:41:23 10° NNW 05:45:01 20° WNW 05:48:05 12° W visible
22 Sep 4.4 03:24:21 10° NNE 03:28:54 32° E 03:29:57 30° ESE visible
22 Sep 3.6 05:03:15 10° N 05:07:55 38° WNW 05:10:05 26° WSW visible
23 Sep 5.3 02:48:01 10° NE 02:51:03 16° E 02:51:56 15° E visible
23 Sep 2.9 04:25:31 10° NNE 04:30:36 77° WNW 04:32:04 47° SSW visible
23 Sep 4.8 06:06:21 10° NNW 06:08:44 13° NW 06:11:07 10° W visible
24 Sep 3.6 03:48:07 10° NNE 03:53:06 52° E 03:54:04 45° SE visible
24 Sep 4.1 05:27:40 10° N 05:31:46 25° WNW 05:34:12 18° W visible
25 Sep 4.7 03:11:12 10° NE 03:15:23 25° E 03:16:02 24° ESE visible
25 Sep 3.2 04:49:42 10° N 04:54:34 48° WNW 04:56:11 36° WSW visible
26 Sep 5.6 02:35:34 10° ENE 02:37:26 12° E 02:38:02 12° E visible
26 Sep 2.9 04:12:05 10° NNE 04:17:12 83° ESE 04:18:10 60° S visible
26 Sep 4.6 05:52:22 10° NNW 05:55:31 17° WNW 05:58:18 11° W visible
27 Sep 4.0 03:34:50 10° NNE 03:39:37 40° E 03:40:09 39° ESE visible
27 Sep 3.8 05:14:02 10° N 05:18:28 31° WNW 05:20:17 24° W visible
28 Sep 5.1 02:58:10 10° NE 03:01:50 20° E 03:02:07 19° E visible
28 Sep 3.0 04:36:12 10° N 04:41:13 62° WNW 04:42:16 50° WSW visible
28 Sep 4.9 06:17:50 10° NW 06:19:11 11° NW 06:20:33 10° WNW visible
29 Sep 3.2 03:58:42 10° NNE 04:03:46 65° ESE 04:04:14 61° SE visible
29 Sep 4.3 05:38:33 10° NNW 05:42:16 21° WNW 05:44:23 16° W visible
